Погода в Сосново-Озёрском

Россия / Республика Бурятия     52°31′43″N   111°32′15″E
темп.,
°C
ветер,
м/с
пор.,
м/с
влажн.,
%
обл.,
%
осадки,
мм/ч
давл.,
гПа
погр.,
м
12 апреля, пн
пн1223:00−7ссз5844100 0.0 1031454
02:00−8с2442100 0.0 1033456
05:00−10зсз224768 0.0 1033143
08:00−8з34393 0.0 1033525
11:00−4з45220 0.0 10291557
14:000зсз572123 0.0 10242367
17:000сз7826100 0.0 10222382
20:00−4сз484637 0.0 1025325
13 апреля, вт
вт1323:00−8ссз23675 0.0 102651
02:00−9з22680 0.0 102611
05:00−10зюз22740 0.0 102530
08:00−6зюз45583 0.0 1022377
11:000з56354 0.0 10171350
14:00+4з682848 0.0 10131919
17:00+4зсз7103120 0.0 10101768
20:00+1зсз4845100 0.0 1010530
14 апреля, ср
ср1423:000з41061100 0.0 1010488
02:00−2з7147679 0.0 1010799
05:00−4зсз7136958 0.0 1012563
08:00−2зсз695395 0.0 1012685
11:00+2сз6628100 0.0 10111733
14:00+4сз7623100 0.0 10092610
17:00+2сз8827100 0.0 10102212
20:00−2зсз6104784 0.0 1013609
15 апреля, чт
чт1523:00−5з476534 0.0 1014212
02:00−7з35775 0.0 1012106
05:00−8з36865 0.0 1012143
08:00−4з58535 0.0 1010822
11:00+1зсз682497 0.0 10072681
14:00+1сз6722100 0.0 10062784
17:00+1сз5628100 0.1 10072236
20:00−2сз594298 0.1 1010288
16 апреля, пт
пт1623:00−4сз4960100 0.0 1012353
02:00−4сз4961100 0.1 1014437
05:00−7зсз387933 0.0 1018225
08:00−3сз57455 0.0 1018713
11:00+1сз45197 0.0 10172229
14:00+4зсз77206 0.0 10152226
17:00+4зсз782951 0.0 10141776
20:00+1зсз5946100 0.0 1016556